Top 250   ALL   UTC   Spotter   Comment  
3B9FR   21315.0   19 Nov 13:58   IZ6ZFM   59 robert
W0EEE   14315.2   19 Nov 13:58   W3OU   USB
ND4Y   7195.0   19 Nov 13:58   K2CYE   LSB
ZS6TVB   21235.0   19 Nov 13:58   EA4ETN  
K7FX   3799.5   19 Nov 13:57   OH6NUW   absolutli zero notting !
IQ4FJ   14230.0   19 Nov 13:57   IZ4KOJ   ARI90 AWARD ref. E90ARI8
K0DEQ   14250.6   19 Nov 13:57   K3DNE   MO
W4AAA   7231.0   19 Nov 13:57   K3AJ   LSB
N8II   7155.0   19 Nov 13:57   N8CWU/1   WV
WB0TEV   14151.9   19 Nov 13:57   WV1M   SS NTX
ZD8AC   21264.9   19 Nov 13:57   F4FHV  
HZ1HZ   14250.0   19 Nov 13:57   DK1RU   best 73/88 from Stuttgart
PJ2/KU1CW   14026.0   19 Nov 13:57   K8ND   QSX 14027.1
KC4NX   7242.6   19 Nov 13:57   K3AJ   LSB
VQ917JC   18081.0   19 Nov 13:57   IZ5JMZ   up 2.8
KC1CWF   14247.0   19 Nov 13:57   WR1ST   59 NNY
TC10R   14082.0   19 Nov 13:57   YO2DFA   RTTY Ataturk Award
DL8ECA/M   14044.0   19 Nov 13:57   LZ2OQ   WCA DL-00473 DLFF-0086
PY2SBY   21245.0   19 Nov 13:57   PY2SBY   cqdx 300 watts mobile antenna
K9CT   7261.5   19 Nov 13:57   KC7NGQ   il
KY7M   7208.2   19 Nov 13:57   K5PI   AZ LSB
J5T   28485.0   19 Nov 13:57   EC4KW   5up
TO2SP   14140.0   19 Nov 13:57   IK8GJR   up tnx for new mode
VP2MDL   18134.0   19 Nov 13:56   EI6JK   Booming great op Simplex
WA1BXY   14237.9   19 Nov 13:56   K4LDC   RI
OP17N   7109.0   19 Nov 13:57   ON4BEN   SES - WW1 / UBA AWARD
N0UR   14295.2   19 Nov 13:56   W3OU   USB
TC10T   7160.0   19 Nov 13:56   HA5KZO   Special Call
VP2MDL   18134.0   19 Nov 13:56   DK8MZ   cqing
ZS6DN/B   28200.0   19 Nov 13:56   G4ELJ   529
TO2SP   21030.0   19 Nov 13:56   SP6GVU   TNX & CPK
NJ1F   14274.0   19 Nov 13:56   YO7MPD   5/9
K5MV   7156.6   19 Nov 13:56   N3FJP   STX
TC10R   14000.0   19 Nov 13:56   9A4OP   pse phone
RA6FAE   145500.0   19 Nov 13:56   RA4A   LO20QC<> 59
K4CEB   7248.2   19 Nov 13:56   K3AJ   LSB
W0CN   7261.5   19 Nov 13:56   N8CWU/1   VA
EV135KK   7060.0   19 Nov 13:56   EW1LN  
WW4LL   7148.5   19 Nov 13:56   W4CJB   765M 76 GA
WB2NVR   14202.8   19 Nov 13:56   N2JF   USB
W1IE   7170.2   19 Nov 13:56   N8YXR  
K5VWW   14287.7   19 Nov 13:56   W3OU   USB
WD5K   14247.9   19 Nov 13:56   K3DNE   NTX
W1SJ   7179.6   19 Nov 13:56   KC2ED   VT
K5KJ   14177.5   19 Nov 13:56   WV1M   SS NTX
K0EU   7174.0   19 Nov 13:55   AB9YC   LSB
J5T   21000.0   19 Nov 13:55   IT9DVZ   pse rtty
N2BJ   7128.0   19 Nov 13:55   N3FJP   IL
K3WI   14196.9   19 Nov 13:55   W9XT  
W2YP   14196.0   19 Nov 13:55   M6KHE   3/2 to the uk
OH2XX   3509.6   19 Nov 13:55   OH8WR   cq dx cq dx
VK4NBX   14240.0   19 Nov 13:55   GW6LHF  
5K0T   14015.1   19 Nov 13:55   W3LPL   Heard in PA and SC
OK2RJC   14023.0   19 Nov 13:55   AB1YD   TU from RI
TO2SP   21030.0   19 Nov 13:55   I1YOD  
ZB2CW   21024.0   19 Nov 13:55   UR5KB   Derek from Gibraltar ! TU & 73
J5T   24900.0   19 Nov 13:55   IT9DVZ   pse rtty
TO2SP   18085.0   19 Nov 13:55   PA3AT   tnx new one 73
N8OO   14200.4   19 Nov 13:55   NF3R   LA
W6YI   7158.7   19 Nov 13:55   K5PI   LSB
MI5AFK   18140.0   19 Nov 13:55   W4GOK  
K5MV   7156.6   19 Nov 13:54   K5PI   STX LSB
TC10K   18152.0   19 Nov 13:54   WE0J   5/7-9 in OK
K0PJ   14190.8   19 Nov 13:54   W9XT  
VP2MDL   21004.0   19 Nov 13:54   W3LPL   Heard in VA and MD
J5T   28000.0   19 Nov 13:54   IT9DVZ   pse rtty
W5WZ   14256.9   19 Nov 13:54   N4CF  
KU4FX   7141.6   19 Nov 13:54   K9CT   WCF
A41NNN   14290.0   19 Nov 13:54   A41NN  
TC10M   14083.2   19 Nov 13:54   RA3GK   RTTY To the 79th memorial day for Cemalpasa - ADANA
KI5LR   14236.2   19 Nov 13:54   K3DNE   STX
W8MET   7243.5   19 Nov 13:54   W2GPS   LSB
TO2SP   18085.0   19 Nov 13:54   YU1WAT   UP 1
K0NEB   14220.0   19 Nov 13:54   K4LDC   NE
W6PZ   7149.0   19 Nov 13:54   K5PI   SF LSB
ND8DX   7292.0   19 Nov 13:53   NF7T   OH
PJ4/DH8BQA   18145.0   19 Nov 13:53   SP1HN   cq cq
J5T   28000.0   19 Nov 13:53   IS0ABC   CW Oggi grazie
W5IP   7176.2   19 Nov 13:53   N8YXR  
TO2SP   14140.0   19 Nov 13:53   SP9AI   up 5-10
TC10S   14210.0   19 Nov 13:53   DH7ADO  
W2YP   14196.0   19 Nov 13:53   9A7JCY  
PJ4/DH8BQA   18145.0   19 Nov 13:53   DH8BQA  
OE6MDF   18100.0   19 Nov 13:53   KI0EB  
K4VGL   14231.5   19 Nov 13:53   K3DNE   AL
TC10A   7175.0   19 Nov 13:48   TA0ACL  
KC1CWF   7179.0   19 Nov 13:52   W1CLA   NNY
J5T   24890.0   19 Nov 13:52   ON7RN   QSX UP
VQ917JC   18081.0   19 Nov 13:52   SP6MLX   up 1,3
K4PV   7171.5   19 Nov 13:52   K9CT   NFL
KI0F   14215.2   19 Nov 13:52   K4LDC   MN
HZ1HZ   14250.0   19 Nov 13:52   A71FJ   59+10
TO2SP   18085.0   19 Nov 13:52   K5KV   UP
J5T   28485.0   19 Nov 13:52   IU1AVL   QSX 5 UP. Tnx for QSO.
TC10M   14083.3   19 Nov 13:52   DL2JIL   RTTY
HZ1HZ   14250.0   19 Nov 13:52   5H9GB   55 into Tanzania
J5T   28285.1   19 Nov 13:52   S52BB   Tnx QSO up 5
K7FX   3799.5   19 Nov 13:51   KK6ZM   cq dx - no test
TC10R   14082.0   19 Nov 13:52   SP2GCJ  
J5T   28485.0   19 Nov 13:52   ON7RN   nothing here
GU4RUK   21012.4   19 Nov 13:52   W3LPL   Heard in MA
K0NEB   14220.0   19 Nov 13:52   K3DNE   NE
OD5PY   21007.5   19 Nov 13:52   W3LPL   Heard in PA
OY1CT   21018.1   19 Nov 13:51   PA7RA   CW
OK2RKR/P   14285.0   19 Nov 13:51   OK4KOP   sota ok/jm 007
TC10F   10143.5   19 Nov 13:51   EC4KW   up
W2YP   14196.0   19 Nov 13:51   G0DEF   thx-mike
OZ0JX   7002.2   19 Nov 13:51   JA1MSS   CQ DX nice signal !
NJ1F   14274.5   19 Nov 13:51   KL4SD   WMA
EA2EEK/1   7094.0   19 Nov 13:51   F4HXJ   es-514 dme-39090
N0UR   14295.3   19 Nov 13:51   K2CYE   USB
TC10K   18152.0   19 Nov 13:51   DL2QG   5/9 good dx tnx
KI0F   14215.1   19 Nov 13:51   K3DNE   MN
K9WZB   7182.1   19 Nov 13:51   KC7NGQ   az
ZS6TVB   21235.0   19 Nov 13:50   F4WBL  
YL3CW   7009.0   19 Nov 13:50   JH1DLD   Tnx Val
SM7WNM   18100.0   19 Nov 13:50   KI0EB  
J5T   28485.1   19 Nov 13:50   9A2F   fb sig.hr
ON6SAT   21074.0   19 Nov 13:50   PP5AM   TNX, 73
KW8N   7215.1   19 Nov 13:50   NF7T   OH
UB3YCJ   3675.0   19 Nov 13:50   RA4AV   tnx QSO AGB
N3HEE   7287.3   19 Nov 13:50   K3WI   LSB
N4BP   14211.9   19 Nov 13:50   K3DNE   SFL
PA50LELY   18078.5   19 Nov 13:50   PA0RHA   CW
VY2TT   7180.6   19 Nov 13:49   K1DJ   LSB
VQ917JC   18081.0   19 Nov 13:49   4X1KS   THX JIM...NEW BAND!
ON3RGA/QRP   7044.3   19 Nov 13:49   M5PLY   BPSK31
UR4MSF   18115.0   19 Nov 13:49   CX5UA   cq
TC10S   14210.0   19 Nov 13:49   TA2OTT   CQ CQ
TC10K   18152.0   19 Nov 13:49   DL6FCK   20over..tnx qso..72..
VE3YT   7273.7   19 Nov 13:49   AB9YC   LSB
5B4VL   21230.0   19 Nov 13:49   PY2SBY   tks qso
TC10A   7175.0   19 Nov 13:49   HA5KZO   Special Call
TO2SP   18085.0   19 Nov 13:49   EA2DPA   UP UP
LX/PA3GAF   18083.3   19 Nov 13:49   W3LPL   Heard in PA
W8MET   7243.5   19 Nov 13:49   K4LDC   OH
J5T   24890.0   19 Nov 13:49   I1YOD  
KI0F   14215.0   19 Nov 13:49   W3OU   USB
TC10U   14206.0   19 Nov 13:49   RD6JA  
TC10R   14081.9   19 Nov 13:48   R6FCI   ATATURK
TC10R   14188.0   19 Nov 13:48   TA3IW   ATATURK AWARD
N9GUN   7280.9   19 Nov 13:48   AB9YC   LSB
K1RX   21308.5   19 Nov 13:48   IZ4UFG   cq europe
N4BP   14211.9   19 Nov 13:48   W3OU   USB
N0UR   14295.1   19 Nov 13:48   W3RGA   SS
TC10A   7175.0   19 Nov 13:48   TA4PR   SES Ataturk AWARD
TO2SP   14140.0   19 Nov 13:48   IK0XBX   QSX 14145.00
TO2SP   14140.0   19 Nov 13:48   EA3CEC  
W0EWD   7220.1   19 Nov 13:48   NF7T   IA
K3RA   7269.2   19 Nov 13:48   W2FU   LSB
ND8DX   7292.2   19 Nov 13:47   K5PI   OH LSB
TC10A   7175.0   19 Nov 13:47   UT5CO  
EA2EEK/1   7094.0   19 Nov 13:47   EA1BKO   es-514 dme-39090 cq,cq,cq
EA3AKP   21254.0   19 Nov 13:47   DL10DX   Cq cq
NW0G   7246.0   19 Nov 13:47   K3ABE   LSB
TC10M   14083.2   19 Nov 13:47   YO7CFD   RTTY
N9RV   7225.5   19 Nov 13:47   KC8QDQ   MT
W7WA   7212.5   19 Nov 13:47   K2CYE   LSB
VO1KVT   14165.0   19 Nov 13:47   W1QK   USB NL
EW7LO   7155.0   19 Nov 13:47   JA0KJD  
TO2SP   18085.0   19 Nov 13:47   OH7MP   up
VP2MDL   21003.9   19 Nov 13:47   SP3CQP   Up 1 60
K1KD   7289.0   19 Nov 13:47   AB9YC   LSB
VK5EEE   10121.0   19 Nov 13:47   S57V   cq,cq
OP17N   7109.0   19 Nov 13:47   DL1BRU   nice signal
TO2SP   18085.0   19 Nov 13:46   OH2LZC   tnx qso
TO2SP   14140.0   19 Nov 13:46   SP6IXF  
ND8DX   7292.2   19 Nov 13:46   AB9YC   LSB
NO5F   14186.4   19 Nov 13:46   W3OU   USB
IS0FWY   28074.0   19 Nov 13:46   IW4EGP   FT8
VP2MDL   18135.0   19 Nov 13:46   DK1BT  
VP2MDL   21004.0   19 Nov 13:46   DH1KGO   mni tnx qso
TO2SP   21030.0   19 Nov 13:46   IZ8GCE   up
KW8N   7215.1   19 Nov 13:46   K4LDC   OH
DL8ECA/M   14044.0   19 Nov 13:46   DL8ECA   DLFF-0086 +DL-00473
W0EEE   14315.2   19 Nov 13:46   N3MAV  
CU3AN   18100.0   19 Nov 13:46   KI0EB  
VK4NBX   14240.0   19 Nov 13:46   OE3WMA   TNX Qso
J5T   28485.0   19 Nov 13:46   IK2VUA   up5
W0EEE   14315.0   19 Nov 13:46   AG3Q   MO
OY1CT   21018.0   19 Nov 13:45   9Q6BB   Carsten 429
HZ1HZ   14250.0   19 Nov 13:45   DL7UZO   no P5 !
N9RV   7225.5   19 Nov 13:45   K2QB   MT
OY1CT   21018.2   19 Nov 13:45   OZ0J   tnx smplex
W0EWD   7220.1   19 Nov 13:45   K3DNE   IA
HZ1HZ   14250.0   19 Nov 13:45   IK3SHP   5/9 de ik3shp
W3XOX   7259.0   19 Nov 13:45   K9CT   WPA
PJ2/KU1CW   14026.0   19 Nov 13:45   RZ3DCJ   Up 1.1
W1SJ   7201.5   19 Nov 13:45   N8YXR  
AI5I   50265.0   19 Nov 13:45   N7RF   EL09OS<MS>DM65 at 12:25Z
TC10F   10142.5   19 Nov 13:45   EA4ETN   rtty
K1RX   21308.0   19 Nov 13:45   IZ4UFG   cq
TC10R   14081.9   19 Nov 13:45   RW6A   CQ RTTY
BH5HDE   7035.0   19 Nov 13:45   BH5HDE   bpsk
J5T   24890.0   19 Nov 13:45   K8AJA   UP 2 Good Operator
EA5RCZ/P   21277.0   19 Nov 13:45   DL10DX   flora fauna activation
TA7MHZ   18138.0   19 Nov 13:44   I3JFU  
VQ917JC   18081.0   19 Nov 13:44   I2ZIU   73 up 1
DL2IAU   50280.0   19 Nov 13:44   HA9AL   CQ MSK144 -04dB
J5T   21300.0   19 Nov 13:44   IK2UWR   up
WW1ME   7141.5   19 Nov 13:44   K3DNE   ME
N2RJ   7145.6   19 Nov 13:44   N5MKY   NNJ
PJ2/KU1CW   14026.0   19 Nov 13:44   UX1BZ   tnx QSO
SQ6HNX/P   3696.0   19 Nov 13:44   SQ6JNX   spff-0338
TC10E   14233.0   19 Nov 13:44   DK5WN  
EA1GTX/QRP   7195.0   19 Nov 13:44   EB6AAO   !!! ULTIMAS LLAMADAS !!!
3B9FR   21315.0   19 Nov 13:44   IK2IQD   cq
K0PJ   7282.0   19 Nov 13:44   K3ABE   LSB
K4WI   14268.5   19 Nov 13:44   W2TV   USB
K8TE   14167.6   19 Nov 13:44   W3OU   USB
RZ3LC   7125.0   19 Nov 13:43   UA3LRG   Afaru 888
SQ6JNX   3696.0   19 Nov 13:43   SQ6HNX  
W5IP   7176.0   19 Nov 13:43   K4LDC   NM
J5T   28485.0   19 Nov 13:43   G4ELJ   up 5
W2YP   14196.0   19 Nov 13:43   YO7MPD   TNX FOR 5/9
J5T   21300.0   19 Nov 13:43   IK2IQD   up5
TC10F   10143.0   19 Nov 13:43   OE6ATD   RTTY UP
KC9K   7192.9   19 Nov 13:43   K5PI   IL LSB
N0TA   7170.2   19 Nov 13:43   W2GPS   LSB
TO2SP   14285.0   19 Nov 13:43   SP1FPG   split up - nw deep QSB
W0EWD   7220.2   19 Nov 13:43   N8YXR  
W1JJ   50260.0   19 Nov 13:43   VE1SKY   FN74IU<MS>FN41FP CQ
N2MUN   7266.6   19 Nov 13:43   K9CT   NLI
TC10E   14233.0   19 Nov 13:42   PE1RUS  
WB0TEV   14152.0   19 Nov 13:42   W3OU   USB
TO2SP   18085.0   19 Nov 13:42   IK4SBR   TNX CIAO SERGIO up
K0EU   7174.0   19 Nov 13:42   W0CO   CO ss
RC2T   7041.2   19 Nov 13:42   R3T   SRVS
K4BAI   14267.5   19 Nov 13:42   N3TD  
TC10F   10143.0   19 Nov 13:42   OE5JSL   JN68OD<F2>KN41LA RTTY 2 up TNX QSO
TO2SP   18085.0   19 Nov 13:42   IK0XBX   QSX 18086.30
J5T   24890.0   19 Nov 13:42   IK3PJX   up
TC10T   7160.0   19 Nov 13:42   TA4CS   http://tadx.org/10nov/index.php?lang=eng
TC10F   10143.2   19 Nov 13:42   IK4OMO   RTTY
N9GUN   7280.8   19 Nov 13:42   K3ABE   LSB
K9KE   7226.5   19 Nov 13:42   N8YXR  
N2RJ   3808.5   19 Nov 13:42   N8CWU/1   NNJ
HB9WFF/P   7022.0   19 Nov 13:42   EA3GHZ   HBFF-0187 DCS-TI069
J5T   28485.0   19 Nov 13:42   IZ4IRX   up5 73
G8GHD   18100.0   19 Nov 13:42   KI0EB  
W6RW   7187.1   19 Nov 13:41   K5PI   AZ LSB
UX8IX   7092.1   19 Nov 13:41   UX8IX   DIPLOM
N4FX   7171.5   19 Nov 13:41   K4LDC   VA
IQ9NF/P   7169.0   19 Nov 13:41   IZ7EDQ   FF0534
OY1CT   21018.2   19 Nov 13:41   SP4JEU   Tnx new band qso
IQ4FJ   7015.0   19 Nov 13:41   IK4WLA   QRT
W4AAA   7231.0   19 Nov 13:41   N8YXR  
XE2AD   14097.1   19 Nov 13:41   K5KLA   CQn RTTY
7Z1RR   14157.1   19 Nov 13:41   RZ3FS   tnx QSO
IQ8GT   18080.0   19 Nov 13:41   IZ8SAR   c90ari5 90th ari award